Regional Weather Roundup
Issued by NWS New Orleans/Baton Rouge, LA

Home | Current Version | Previous Version | Text Only | Print | Product List | Glossary On
Versions: 1 2 3 4 5 6 7 8 9 10 11 12 13 14 15 16 17 18 19 20 21 22 23 24 25 26 27
000
ASUS44 KLIX 261913
RWRLIX
NEW ORLEANS REGIONAL WEATHER ROUNDUP
NATIONAL WEATHER SERVICE NEW ORLEANS LA
100 PM CST SUN FEB 26 2017

NOTE: "FAIR" INDICATES FEW OR NO CLOUDS BELOW 12,000 FEET WITH NO
      SIGNIFICANT WEATHER AND/OR OBSTRUCTIONS TO VISIBILITY.
      SKY/WX - SKY CONDITION AND SIGNIFICANT WEATHER.
      TMP - AIR TEMPERATURE.     DP    - DEWPOINT TEMPERATURE.
      RH  - RELATIVE HUMIDITY.   PRES  - PRESSURE.
      HI  - HEAT INDEX.          WCI   - WIND CHILL INDEX.

*  THESE STATIONS ARE NOT NWS OR FAA STATIONS AND ARE NOT UNDER
   NWS QUALITY CONTROL.

LAZ038-040-048-061>063-065>067-069-262000-
SOUTHEAST LOUISIANA

CITY           SKY/WX    TMP DP  RH WIND       PRES   REMARKS
N.O. AUDUBON   NOT AVBL
N.O. INTL ARPT MOSUNNY   67  47  48 E13G22    30.15F
N.O. LAKEFRONT SUNNY     65  48  54 E15G24    30.16F
N.O. DOWNTOWN*   N/A     68  48  48 VRB7      30.16F
RESERVE*         N/A     70  44  38 SE8       30.15F
SLIDELL        SUNNY     65  40  39 VRB5      30.17F
BATON ROUGE    SUNNY     67  41  38 SE14G20   30.14F
BOOTHVILLE     SUNNY     67  54  63 E13G21    30.15F
BELLE CHASSE   MOSUNNY   67  51  56 SE13G22   30.14F
BOGALUSA*        N/A     69  20  16 SE7       30.19F
GALLIANO*      CLEAR     69  51  53 E8G18     30.14F
NEW ROADS*       N/A     64  40  40 S15       30.14F
GONZALES*        N/A     67  46  46 SE5       30.14F
HAMMOND*       SUNNY     66  34  30 S16       30.17F
HOUMA*         SUNNY     70  55  60 E16       30.13F
PORT FOURCHON* NOT AVBL

$$

MSZ070-080>082-262000-
SOUTHERN MISSISSIPPI

CITY           SKY/WX    TMP DP  RH WIND       PRES   REMARKS
MCCOMB         SUNNY     65  20  17 S14G21    30.14F
GULFPORT       SUNNY     64  34  32 SE16      30.17F
BILOXI         SUNNY     64  36  35 SE15      30.17F
PASCAGOULA     SUNNY     66  23  19 SE8       30.18F
STENNIS ARPT*  SUNNY     63  28  27 SE8G18    30.18F

$$

COASTAL OBSERVATIONS
LAKE AND NEARSHORE STATIONS

STATION/POSITION TIME  TEMP    WIND        PRES    WAVE
                       AIR SEA DIR/SP/G            HT/PER
                 (UTC) (F)     (DEG/KT/KT) (MB)    (FT/S)
PASCAGOULA       1848   62     100/ 12/ 18 1021.6
WAVELAND YACHT   1848   58 63  120/ 12/ 15 1021.7
GRAND ISLE       1848   68 67  110/ 11/ 17 1020.6
SOUTHWEST PASS   1848          110/ 17/ 20   N/A
NEW CANAL        1848   65 64  110/  3/  8 1020.4
SHELL BEACH      1848   63 67  100/ 13/ 18 1021.3

OFFSHORE STATIONS

STATION/POSITION TIME  TEMP    WIND        PRES    WAVE
                       AIR SEA DIR/SP/G            HT/PER
                 (UTC) (F)     (DEG/KT/KT) (MB)    (FT/S)

$$





USA.gov is the U.S. government's official web portal to all federal, state and local government web resources and services.